Date,TemperatureHighF,TemperatureAvgF,TemperatureLowF,DewpointHighF,DewpointAvgF,DewpointLowF,HumidityHigh,HumidityAvg,HumidityLow,PressureMaxIn,PressureMinIn,WindSpeedMaxMPH,WindSpeedAvgMPH,GustSpeedMaxMPH,PrecipitationSumIn
2013-2-1,49.2,45.3,40.9,45.8,40.1,35.4,88,82,75,30.39,30.31,1,0,5,0.01
2013-2-2,43.5,41.6,39.5,40.5,36.6,34.0,89,83,76,30.37,30.24,1,0,7,0.00
2013-2-3,49.0,43.5,39.0,45.5,38.6,33.6,89,83,76,30.29,30.20,0,0,4,0.05
2013-2-4,51.0,46.3,43.5,46.6,42.1,38.5,88,85,79,30.16,29.87,0,0,5,0.01
2013-2-5,52.4,46.1,43.4,47.5,42.2,39.5,88,86,80,29.93,29.82,1,0,7,0.16
2013-2-6,51.8,45.5,43.2,45.6,41.5,39.6,88,86,76,30.04,29.77,1,0,7,0.05
2013-2-7,49.2,42.2,35.4,43.4,37.9,30.8,88,85,74,30.17,29.77,1,0,7,0.06
2013-2-8,44.8,40.1,35.0,39.8,35.1,29.7,88,82,76,30.29,30.17,1,0,5,0.01
2013-2-9,47.1,42.7,40.0,42.1,38.5,35.9,88,85,78,30.32,30.24,0,0,2,0.01
2013-2-10,47.0,41.5,35.1,41.7,37.1,30.8,89,84,76,30.36,30.31,0,0,3,0.01
2013-2-11,48.3,43.6,39.3,43.5,39.2,34.1,88,85,77,30.34,30.31,0,0,4,0.01
2013-2-12,50.7,47.4,44.3,47.0,43.1,39.8,88,85,77,30.38,30.27,1,0,10,0.01
2013-2-13,49.6,46.1,42.8,44.8,42.2,39.2,88,86,81,30.49,30.27,1,0,7,0.01
2013-2-14,50.3,46.2,42.7,46.6,42.3,38.7,88,86,82,30.54,30.48,0,0,4,0.03
2013-2-15,52.3,44.4,38.9,46.7,39.4,33.9,88,83,76,30.53,30.16,1,0,6,0.00
2013-2-16,54.8,45.2,38.2,48.3,39.6,32.3,88,81,71,30.19,30.09,1,0,7,0.00
2013-2-17,48.5,42.7,39.5,42.2,38.2,35.3,88,84,73,30.23,30.09,0,0,4,0.01
2013-2-18,47.8,41.9,38.1,41.9,37.3,33.3,88,84,78,30.09,29.75,1,0,7,0.02
2013-2-19,50.3,41.0,35.0,40.4,35.2,31.1,89,80,63,30.00,29.72,2,0,8,0.01
2013-2-20,46.3,40.1,33.7,41.5,35.8,29.0,89,85,77,30.04,29.97,1,0,7,0.01
2013-2-21,45.0,42.6,40.1,41.5,38.6,34.5,88,86,79,30.06,29.99,1,0,15,0.01
2013-2-22,45.7,42.1,37.0,42.3,38.7,33.9,89,88,85,30.04,29.68,2,0,13,0.00
2013-2-23,50.9,43.1,38.7,43.4,38.3,35.5,89,83,69,30.36,29.89,2,0,6,0.01
2013-2-24,49.1,44.4,40.3,41.4,38.5,36.3,88,80,73,30.36,29.93,1,0,8,0.00
2013-2-25,52.3,42.9,37.4,43.2,37.7,33.9,88,82,57,30.29,29.87,1,0,9,0.01
2013-2-26,49.9,43.3,37.5,40.7,37.1,34.3,88,79,61,30.34,30.18,1,0,7,0.00
2013-2-27,50.4,44.4,37.5,45.0,39.6,32.7,87,83,75,30.29,30.19,0,0,4,0.00
2013-2-28,52.2,47.8,43.3,46.4,41.5,37.0,85,79,75,30.31,30.17,0,0,6,0.01